Date,TemperatureHighF,TemperatureAvgF,TemperatureLowF,DewpointHighF,DewpointAvgF,DewpointLowF,HumidityHigh,HumidityAvg,HumidityLow,PressureMaxIn,PressureMinIn,WindSpeedMaxMPH,WindSpeedAvgMPH,GustSpeedMaxMPH,PrecipitationSumIn
2013-10-1,76,63,53,63,56,51,95,81,56,29.99,29.88,8,0,10,0.00
2013-10-2,78,67,58,65,60,55,92,78,57,29.98,29.89,8,1,8,0.00
2013-10-3,76,66,57,66,60,55,95,83,59,30.08,29.97,4,0,4,0.00
2013-10-4,80,68,60,69,64,59,97,87,60,30.02,29.93,5,0,7,0.00
2013-10-5,80,70,63,70,65,62,97,87,66,30.04,29.94,5,0,6,0.01
2013-10-6,70,66,63,67,64,62,97,96,90,30.02,29.93,6,1,8,0.18
2013-10-7,73,64,54,70,62,47,97,93,76,29.96,29.68,13,2,15,0.49
2013-10-8,63,54,47,50,47,45,94,78,53,30.29,29.96,8,1,10,0.00
2013-10-9,58,52,45,49,45,40,86,77,60,30.34,30.23,7,1,8,0.00
2013-10-10,55,53,49,54,50,46,96,91,81,30.23,30.01,7,1,7,0.44
2013-10-11,62,58,54,60,56,52,97,93,88,30.04,29.95,7,1,9,0.35
2013-10-12,70,62,54,58,50,40,89,67,43,30.20,30.01,12,1,12,0.00
2013-10-13,64,58,50,55,51,49,95,81,63,30.32,30.19,9,1,11,0.00
2013-10-14,64,54,46,52,49,44,97,83,50,30.32,30.19,6,0,6,0.00
2013-10-15,70,56,45,57,48,37,97,77,47,30.21,30.06,7,0,7,0.00
2013-10-16,63,56,49,58,54,45,97,92,81,30.06,29.87,4,0,5,0.00
2013-10-17,70,63,59,63,60,57,97,90,74,29.87,29.63,11,0,13,0.03
2013-10-18,63,56,48,62,46,42,94,71,54,29.95,29.64,14,3,15,0.00
2013-10-19,60,51,42,52,45,40,96,81,56,29.95,29.71,9,0,9,0.09
2013-10-20,58,50,44,51,40,36,95,70,44,30.03,29.74,13,3,13,0.01
2013-10-21,64,51,39,45,40,37,94,70,42,30.11,29.93,10,1,10,0.00
2013-10-22,60,51,44,52,44,34,97,78,55,29.93,29.72,10,1,10,0.00
2013-10-23,53,44,39,41,36,33,88,72,54,29.78,29.60,8,1,8,0.00
2013-10-24,49,42,37,36,32,27,89,69,44,30.00,29.75,12,4,14,0.00
2013-10-25,50,42,34,36,32,29,86,70,50,30.21,30.00,9,2,15,0.00
2013-10-26,52,43,32,35,32,29,90,67,44,30.20,29.86,11,1,16,0.00
2013-10-27,54,47,41,36,33,31,72,59,47,30.09,29.83,11,3,13,0.00
2013-10-28,57,46,35,38,34,30,88,64,43,30.27,30.09,9,1,10,0.00
2013-10-29,54,46,38,38,35,33,85,68,48,30.37,30.26,5,0,6,0.00
2013-10-30,57,48,40,51,44,35,94,85,77,30.31,30.13,4,0,5,0.00
2013-10-31,64,58,50,59,55,49,96,90,79,30.18,29.73,11,1,15,0.02